Wetterdaten: Freitag / Samstag, 06.03.2021
Datum Zeit Temp. Aussen Temp. o. S. Temp +5cm Feuchte Auss Luftdruck Regen Sonnenschein Regendauer Solar Windben Empfang
05.03.2021 16:00 6,9 C 12,8 C 2,8 C 49 % 1030,0 hPa 0,0 l/m 2 min 0 min 328 W/m 16,1 km/h (3 Bft) 93,62 %
05.03.2021 16:02 6,9 C 14,4 C 2,8 C 49 % 1029,9 hPa 0,0 l/m 2 min 0 min 344 W/m 3,2 km/h (1 Bft) 95,74 %
05.03.2021 16:04 7,0 C 14,4 C 2,8 C 50 % 1030,0 hPa 0,0 l/m 2 min 0 min 342 W/m 6,4 km/h (2 Bft) 93,62 %
05.03.2021 16:06 7,0 C 15,0 C 2,8 C 50 % 1030,0 hPa 0,0 l/m 2 min 0 min 339 W/m 9,7 km/h (2 Bft) 95,74 %
05.03.2021 16:08 7,0 C 14,4 C 2,8 C 50 % 1030,0 hPa 0,0 l/m 2 min 0 min 334 W/m 12,9 km/h (3 Bft) 95,74 %
05.03.2021 16:10 7,0 C 14,4 C 2,8 C 50 % 1030,0 hPa 0,0 l/m 2 min 0 min 328 W/m 12,9 km/h (3 Bft) 95,65 %
05.03.2021 16:12 7,0 C 14,4 C 2,8 C 49 % 1030,0 hPa 0,0 l/m 2 min 0 min 321 W/m 19,3 km/h (3 Bft) 95,74 %
05.03.2021 16:14 7,0 C 15,0 C 2,8 C 50 % 1030,0 hPa 0,0 l/m 2 min 0 min 315 W/m 6,4 km/h (2 Bft) 95,74 %
05.03.2021 16:16 6,9 C 13,9 C 2,8 C 51 % 1030,0 hPa 0,0 l/m 2 min 0 min 308 W/m 16,1 km/h (3 Bft) 93,62 %
05.03.2021 16:18 6,8 C 10,6 C 2,3 C 51 % 1030,0 hPa 0,0 l/m 2 min 0 min 302 W/m 12,9 km/h (3 Bft) 95,74 %
05.03.2021 16:20 6,8 C 8,3 C 2,8 C 50 % 1030,1 hPa 0,0 l/m 2 min 0 min 296 W/m 12,9 km/h (3 Bft) 95,74 %
05.03.2021 16:22 6,7 C 7,8 C 2,8 C 49 % 1030,1 hPa 0,0 l/m 2 min 0 min 289 W/m 6,4 km/h (2 Bft) 95,65 %
05.03.2021 16:24 6,7 C 7,2 C 2,8 C 50 % 1030,1 hPa 0,0 l/m 2 min 0 min 281 W/m 19,3 km/h (3 Bft) 97,87 %
05.03.2021 16:26 6,6 C 6,7 C 2,8 C 50 % 1030,1 hPa 0,0 l/m 2 min 0 min 275 W/m 9,7 km/h (2 Bft) 95,74 %
05.03.2021 16:28 6,5 C 6,1 C 2,3 C 50 % 1030,1 hPa 0,0 l/m 2 min 0 min 268 W/m 6,4 km/h (2 Bft) 93,62 %
05.03.2021 16:30 6,5 C 6,1 C 2,3 C 52 % 1030,1 hPa 0,0 l/m 2 min 0 min 260 W/m 12,9 km/h (3 Bft) 97,87 %
05.03.2021 16:32 6,4 C 6,1 C 2,3 C 51 % 1030,1 hPa 0,0 l/m 2 min 0 min 254 W/m 9,7 km/h (2 Bft) 97,87 %
05.03.2021 16:34 6,4 C 6,1 C 2,3 C 52 % 1030,1 hPa 0,0 l/m 2 min 0 min 248 W/m 9,7 km/h (2 Bft) 97,83 %
05.03.2021 16:36 6,4 C 5,6 C 2,3 C 51 % 1030,1 hPa 0,0 l/m 2 min 0 min 242 W/m 22,5 km/h (4 Bft) 97,87 %
05.03.2021 16:38 6,3 C 5,6 C 2,3 C 50 % 1030,1 hPa 0,0 l/m 2 min 0 min 234 W/m 16,1 km/h (3 Bft) 95,74 %
05.03.2021 16:40 6,2 C 5,6 C 2,3 C 50 % 1030,1 hPa 0,0 l/m 2 min 0 min 227 W/m 9,7 km/h (2 Bft) 91,49 %
05.03.2021 16:42 6,1 C 5,6 C 2,3 C 51 % 1030,0 hPa 0,0 l/m 2 min 0 min 220 W/m 6,4 km/h (2 Bft) 97,87 %
05.03.2021 16:44 6,1 C 5,6 C 2,3 C 53 % 1030,0 hPa 0,0 l/m 2 min 0 min 213 W/m 12,9 km/h (3 Bft) 97,87 %
05.03.2021 16:46 6,0 C 5,6 C 2,3 C 53 % 1030,1 hPa 0,0 l/m 2 min 0 min 206 W/m 9,7 km/h (2 Bft) 97,83 %
05.03.2021 16:48 6,0 C 5,6 C 2,3 C 52 % 1030,0 hPa 0,0 l/m 2 min 0 min 195 W/m 9,7 km/h (2 Bft) 97,87 %
05.03.2021 16:50 5,9 C 5,6 C 2,3 C 52 % 1030,1 hPa 0,0 l/m 2 min 0 min 121 W/m 12,9 km/h (3 Bft) 95,74 %
05.03.2021 16:52 5,8 C 5,6 C 2,3 C 52 % 1030,1 hPa 0,0 l/m 0 min 0 min 75 W/m 6,4 km/h (2 Bft) 97,87 %
05.03.2021 16:54 5,8 C 5,6 C 2,3 C 52 % 1030,1 hPa 0,0 l/m 0 min 0 min 74 W/m 6,4 km/h (2 Bft) 97,87 %
05.03.2021 16:56 5,7 C 5,0 C 2,3 C 52 % 1030,0 hPa 0,0 l/m 0 min 0 min 74 W/m 9,7 km/h (2 Bft) 95,65 %
05.03.2021 16:58 5,7 C 5,0 C 2,3 C 52 % 1030,1 hPa 0,0 l/m 0 min 0 min 74 W/m 16,1 km/h (3 Bft) 97,87 %
05.03.2021 17:00 5,6 C 5,0 C 2,3 C 52 % 1030,1 hPa 0,0 l/m 0 min 0 min 74 W/m 9,7 km/h (2 Bft) 97,87 %
05.03.2021 17:02 5,6 C 5,0 C 2,3 C 51 % 1030,1 hPa 0,0 l/m 0 min 0 min 72 W/m 16,1 km/h (3 Bft) 97,87 %
05.03.2021 17:04 5,5 C 5,0 C 2,3 C 51 % 1030,1 hPa 0,0 l/m 0 min 0 min 71 W/m 9,7 km/h (2 Bft) 97,87 %
05.03.2021 17:06 5,5 C 5,0 C 2,3 C 52 % 1030,1 hPa 0,0 l/m 0 min 0 min 48 W/m 12,9 km/h (3 Bft) 93,62 %
05.03.2021 17:08 5,5 C 5,0 C 2,3 C 52 % 1030,1 hPa 0,0 l/m 0 min 0 min 31 W/m 12,9 km/h (3 Bft) 97,83 %
05.03.2021 17:10 5,4 C 5,0 C 1,7 C 52 % 1030,1 hPa 0,0 l/m 0 min 0 min 30 W/m 16,1 km/h (3 Bft) 97,87 %
05.03.2021 17:12 5,4 C 5,0 C 1,7 C 53 % 1030,2 hPa 0,0 l/m 0 min 0 min 28 W/m 9,7 km/h (2 Bft) 98,15 %
05.03.2021 17:14 5,4 C 5,0 C 1,7 C 53 % 1030,2 hPa 0,0 l/m 0 min 0 min 28 W/m 16,1 km/h (3 Bft) 100,00 %
05.03.2021 17:16 5,3 C 5,0 C 1,7 C 51 % 1030,2 hPa 0,0 l/m 0 min 0 min 28 W/m 6,4 km/h (2 Bft) 97,30 %
05.03.2021 17:18 5,3 C 5,0 C 1,7 C 51 % 1030,2 hPa 0,0 l/m 0 min 0 min 26 W/m 9,7 km/h (2 Bft) 100,00 %
05.03.2021 17:20 5,3 C 5,0 C 1,7 C 51 % 1030,3 hPa 0,0 l/m 0 min 0 min 26 W/m 16,1 km/h (3 Bft) 100,00 %
05.03.2021 17:22 5,3 C 5,0 C 1,7 C 51 % 1030,3 hPa 0,0 l/m 0 min 0 min 26 W/m 9,7 km/h (2 Bft) 100,00 %
05.03.2021 17:24 5,3 C 5,0 C 1,7 C 53 % 1030,3 hPa 0,0 l/m 0 min 0 min 26 W/m 3,2 km/h (1 Bft) 100,00 %
05.03.2021 17:26 5,2 C 4,4 C 1,7 C 53 % 1030,3 hPa 0,0 l/m 0 min 0 min 25 W/m 3,2 km/h (1 Bft) 100,00 %
05.03.2021 17:28 5,2 C 4,4 C 1,7 C 54 % 1030,3 hPa 0,0 l/m 0 min 0 min 25 W/m 6,4 km/h (2 Bft) 100,00 %
05.03.2021 17:30 5,1 C 4,4 C 1,7 C 53 % 1030,4 hPa 0,0 l/m 0 min 0 min 25 W/m 3,2 km/h (1 Bft) 100,00 %
05.03.2021 17:32 5,1 C 4,4 C 1,7 C 53 % 1030,4 hPa 0,0 l/m 0 min 0 min 24 W/m 3,2 km/h (1 Bft) 100,00 %
05.03.2021 17:34 5,1 C 4,4 C 1,7 C 54 % 1030,4 hPa 0,0 l/m 0 min 0 min 23 W/m 6,4 km/h (2 Bft) 100,00 %
05.03.2021 17:36 5,1 C 4,4 C 1,7 C 54 % 1030,4 hPa 0,0 l/m 0 min 0 min 23 W/m 12,9 km/h (3 Bft) 100,00 %
05.03.2021 17:38 5,0 C 4,4 C 1,7 C 53 % 1030,5 hPa 0,0 l/m 0 min 0 min 23 W/m 6,4 km/h (2 Bft) 100,00 %
05.03.2021 17:40 5,0 C 4,4 C 1,1 C 52 % 1030,5 hPa 0,0 l/m 0 min 0 min 24 W/m 6,4 km/h (2 Bft) 100,00 %
05.03.2021 17:42 5,0 C 4,4 C 1,1 C 52 % 1030,5 hPa 0,0 l/m 0 min 0 min 22 W/m 6,4 km/h (2 Bft) 100,00 %
05.03.2021 17:44 5,0 C 4,4 C 1,1 C 52 % 1030,5 hPa 0,0 l/m 0 min 0 min 19 W/m 19,3 km/h (3 Bft) 100,00 %
05.03.2021 17:46 4,9 C 4,4 C 1,1 C 52 % 1030,6 hPa 0,0 l/m 0 min 0 min 19 W/m 12,9 km/h (3 Bft) 98,11 %
05.03.2021 17:48 4,9 C 4,4 C 1,1 C 53 % 1030,6 hPa 0,0 l/m 0 min 0 min 19 W/m 6,4 km/h (2 Bft) 100,00 %
05.03.2021 17:50 4,9 C 3,9 C 1,1 C 52 % 1030,6 hPa 0,0 l/m 0 min 0 min 18 W/m 6,4 km/h (2 Bft) 100,00 %
05.03.2021 17:52 4,9 C 3,9 C 1,1 C 53 % 1030,6 hPa 0,0 l/m 0 min 0 min 17 W/m 9,7 km/h (2 Bft) 100,00 %
05.03.2021 17:54 4,8 C 3,9 C 1,1 C 52 % 1030,6 hPa 0,0 l/m 0 min 0 min 16 W/m 9,7 km/h (2 Bft) 100,00 %
05.03.2021 17:56 4,8 C 3,9 C 1,1 C 53 % 1030,6 hPa 0,0 l/m 0 min 0 min 16 W/m 3,2 km/h (1 Bft) 100,00 %
05.03.2021 17:58 4,8 C 3,9 C 1,1 C 53 % 1030,7 hPa 0,0 l/m 0 min 0 min 14 W/m 9,7 km/h (2 Bft) 100,00 %
05.03.2021 18:00 4,8 C 3,9 C 1,1 C 53 % 1030,7 hPa 0,0 l/m 0 min 0 min 14 W/m 3,2 km/h (1 Bft) 97,87 %
05.03.2021 18:02 4,7 C 3,9 C 1,1 C 53 % 1030,8 hPa 0,0 l/m 0 min 0 min 14 W/m 3,2 km/h (1 Bft) 100,00 %
05.03.2021 18:04 4,7 C 3,9 C 1,1 C 54 % 1030,8 hPa 0,0 l/m 0 min 0 min 12 W/m 3,2 km/h (1 Bft) 100,00 %
05.03.2021 18:08 4,6 C 3,3 C 0,6 C 54 % 1030,8 hPa 0,0 l/m 0 min 0 min 12 W/m 3,2 km/h (1 Bft) 98,02 %
05.03.2021 18:10 4,5 C 3,3 C 0,6 C 53 % 1030,9 hPa 0,0 l/m 0 min 0 min 11 W/m 6,4 km/h (2 Bft) 95,65 %
05.03.2021 18:12 4,5 C 3,3 C 0,6 C 54 % 1030,9 hPa 0,0 l/m 0 min 0 min 11 W/m 6,4 km/h (2 Bft) 95,74 %
05.03.2021 18:14 4,5 C 3,3 C 0,6 C 55 % 1030,9 hPa 0,0 l/m 0 min 0 min 10 W/m 3,2 km/h (1 Bft) 74,47 %
05.03.2021 18:16 4,4 C 3,3 C 0,6 C 55 % 1031,0 hPa 0,0 l/m 0 min 0 min 7 W/m 3,2 km/h (1 Bft) 76,60 %
05.03.2021 18:18 4,4 C 3,3 C 0,6 C 54 % 1031,0 hPa 0,0 l/m 0 min 0 min 7 W/m 3,2 km/h (1 Bft) 95,74 %
05.03.2021 18:20 4,4 C 3,3 C 0,6 C 56 % 1031,0 hPa 0,0 l/m 0 min 0 min 6 W/m 3,2 km/h (1 Bft) 95,74 %
05.03.2021 18:22 4,4 C 3,3 C 0,6 C 55 % 1031,0 hPa 0,0 l/m 0 min 0 min 5 W/m 0,0 km/h (0 Bft) 95,92 %
05.03.2021 18:24 4,3 C 2,8 C 0,0 C 55 % 1031,1 hPa 0,0 l/m 0 min 0 min 4 W/m 0,0 km/h (0 Bft) 95,74 %
05.03.2021 18:26 4,3 C 2,8 C 0,0 C 55 % 1031,1 hPa 0,0 l/m 0 min 0 min 0 W/m 0,0 km/h (0 Bft) 95,74 %
05.03.2021 18:28 4,3 C 2,8 C 0,0 C 55 % 1031,1 hPa 0,0 l/m 0 min 0 min 0 W/m 0,0 km/h (0 Bft) 95,74 %
05.03.2021 18:30 4,3 C 2,8 C 0,0 C 55 % 1031,1 hPa 0,0 l/m 0 min 0 min 0 W/m 0,0 km/h (0 Bft) 97,87 %
05.03.2021 18:32 4,2 C 2,8 C 0,0 C 56 % 1031,2 hPa 0,0 l/m 0 min 0 min 0 W/m 6,4 km/h (2 Bft) 95,65 %
05.03.2021 18:34 4,1 C 2,8 C 0,0 C 57 % 1031,2 hPa 0,0 l/m 0 min 0 min 0 W/m 0,0 km/h (0 Bft) 97,87 %
05.03.2021 18:36 4,1 C 2,2 C -0,5 C 57 % 1031,2 hPa 0,0 l/m 0 min 0 min 0 W/m 0,0 km/h (0 Bft) 97,87 %
05.03.2021 18:38 4,1 C 2,2 C -0,5 C 57 % 1031,3 hPa 0,0 l/m 0 min 0 min 0 W/m 0,0 km/h (0 Bft) 95,74 %
05.03.2021 18:40 4,0 C 2,2 C -0,5 C 57 % 1031,3 hPa 0,0 l/m 0 min 0 min 0 W/m 0,0 km/h (0 Bft) 97,87 %
05.03.2021 18:42 4,0 C 2,2 C -0,5 C 57 % 1031,3 hPa 0,0 l/m 0 min 0 min 0 W/m 0,0 km/h (0 Bft) 95,74 %
05.03.2021 18:44 4,0 C 2,2 C -0,5 C 58 % 1031,3 hPa 0,0 l/m 0 min 0 min 0 W/m 0,0 km/h (0 Bft) 93,48 %
05.03.2021 18:46 4,0 C 1,7 C -0,5 C 58 % 1031,4 hPa 0,0 l/m 0 min 0 min 0 W/m 0,0 km/h (0 Bft) 97,87 %
05.03.2021 18:48 3,9 C 1,7 C -0,5 C 59 % 1031,4 hPa 0,0 l/m 0 min 0 min 0 W/m 0,0 km/h (0 Bft) 97,87 %
05.03.2021 18:50 3,9 C 1,7 C -1,1 C 59 % 1031,4 hPa 0,0 l/m 0 min 0 min 0 W/m 0,0 km/h (0 Bft) 97,87 %
05.03.2021 18:52 3,8 C 1,7 C -1,1 C 58 % 1031,4 hPa 0,0 l/m 0 min 0 min 0 W/m 0,0 km/h (0 Bft) 97,87 %
05.03.2021 18:54 3,8 C 1,7 C -1,1 C 59 % 1031,4 hPa 0,0 l/m 0 min 0 min 0 W/m 0,0 km/h (0 Bft) 91,49 %
05.03.2021 18:56 3,7 C 1,1 C -1,1 C 60 % 1031,5 hPa 0,0 l/m 0 min 0 min 0 W/m 0,0 km/h (0 Bft) 95,65 %
05.03.2021 18:58 3,6 C 1,1 C -1,1 C 60 % 1031,5 hPa 0,0 l/m 0 min 0 min 0 W/m 0,0 km/h (0 Bft) 93,62 %
05.03.2021 19:00 3,6 C 1,1 C -1,1 C 61 % 1031,5 hPa 0,0 l/m 0 min 0 min 0 W/m 0,0 km/h (0 Bft) 95,74 %
05.03.2021 19:02 3,5 C 1,1 C -1,1 C 61 % 1031,5 hPa 0,0 l/m 0 min 0 min 0 W/m 0,0 km/h (0 Bft) 95,74 %
05.03.2021 19:04 3,5 C 1,1 C -1,1 C 61 % 1031,6 hPa 0,0 l/m 0 min 0 min 0 W/m 0,0 km/h (0 Bft) 95,74 %
05.03.2021 19:06 3,4 C 1,1 C -1,1 C 61 % 1031,6 hPa 0,0 l/m 0 min 0 min 0 W/m 0,0 km/h (0 Bft) 91,49 %
05.03.2021 19:08 3,3 C 1,1 C -1,1 C 62 % 1031,7 hPa 0,0 l/m 0 min 0 min 0 W/m 0,0 km/h (0 Bft) 95,65 %
05.03.2021 19:10 3,3 C 1,1 C -1,1 C 62 % 1031,7 hPa 0,0 l/m 0 min 0 min 0 W/m 0,0 km/h (0 Bft) 95,74 %
05.03.2021 19:12 3,2 C 1,1 C -1,1 C 62 % 1031,7 hPa 0,0 l/m 0 min 0 min 0 W/m 0,0 km/h (0 Bft) 93,62 %
05.03.2021 19:14 3,1 C 1,1 C -1,1 C 62 % 1031,7 hPa 0,0 l/m 0 min 0 min 0 W/m 0,0 km/h (0 Bft) 91,49 %
05.03.2021 19:16 3,1 C 1,1 C -1,1 C 62 % 1031,7 hPa 0,0 l/m 0 min 0 min 0 W/m 0,0 km/h (0 Bft) 91,49 %
05.03.2021 19:18 3,0 C 1,1 C -1,6 C 63 % 1031,8 hPa 0,0 l/m 0 min 0 min 0 W/m 0,0 km/h (0 Bft) 93,62 %
05.03.2021 19:20 3,0 C 1,1 C -1,6 C 64 % 1031,8 hPa 0,0 l/m 0 min 0 min 0 W/m 0,0 km/h (0 Bft) 95,65 %
05.03.2021 19:22 2,9 C 1,1 C -1,6 C 64 % 1031,8 hPa 0,0 l/m 0 min 0 min 0 W/m 0,0 km/h (0 Bft) 95,74 %
05.03.2021 19:24 2,9 C 0,6 C -1,6 C 64 % 1031,8 hPa 0,0 l/m 0 min 0 min 0 W/m 0,0 km/h (0 Bft) 93,62 %
05.03.2021 19:26 2,9 C 0,6 C -1,6 C 65 % 1031,9 hPa 0,0 l/m 0 min 0 min 0 W/m 0,0 km/h (0 Bft) 93,62 %
05.03.2021 19:28 2,8 C 0,6 C -1,6 C 65 % 1031,9 hPa 0,0 l/m 0 min 0 min 0 W/m 0,0 km/h (0 Bft) 93,62 %
05.03.2021 19:30 2,8 C 0,6 C -2,2 C 65 % 1031,9 hPa 0,0 l/m 0 min 0 min 0 W/m 0,0 km/h (0 Bft) 93,62 %
05.03.2021 19:32 2,7 C 0,6 C -2,2 C 65 % 1031,9 hPa 0,0 l/m 0 min 0 min 0 W/m 0,0 km/h (0 Bft) 91,67 %
05.03.2021 19:34 2,6 C 0,6 C -2,2 C 65 % 1031,9 hPa 0,0 l/m 0 min 0 min 0 W/m 0,0 km/h (0 Bft) 93,62 %
05.03.2021 19:36 2,6 C 0,6 C -2,2 C 65 % 1032,0 hPa 0,0 l/m 0 min 0 min 0 W/m 0,0 km/h (0 Bft) 93,62 %
05.03.2021 19:38 2,5 C 0,6 C -2,2 C 65 % 1032,0 hPa 0,0 l/m 0 min 0 min 0 W/m 0,0 km/h (0 Bft) 93,62 %
05.03.2021 19:40 2,5 C 0,6 C -2,2 C 65 % 1032,0 hPa 0,0 l/m 0 min 0 min 0 W/m 0,0 km/h (0 Bft) 93,48 %
05.03.2021 19:42 2,4 C 0,6 C -2,2 C 65 % 1032,0 hPa 0,0 l/m 0 min 0 min 0 W/m 0,0 km/h (0 Bft) 93,62 %
05.03.2021 19:44 2,4 C 0,6 C -2,2 C 65 % 1032,0 hPa 0,0 l/m 0 min 0 min 0 W/m 0,0 km/h (0 Bft) 93,62 %
05.03.2021 19:46 2,4 C 0,6 C -2,2 C 66 % 1032,1 hPa 0,0 l/m 0 min 0 min 0 W/m 0,0 km/h (0 Bft) 92,59 %
05.03.2021 19:48 2,3 C 0,6 C -2,2 C 66 % 1032,1 hPa 0,0 l/m 0 min 0 min 0 W/m 0,0 km/h (0 Bft) 91,49 %
05.03.2021 19:50 2,2 C 0,6 C -2,2 C 66 % 1032,1 hPa 0,0 l/m 0 min 0 min 0 W/m 0,0 km/h (0 Bft) 96,00 %
05.03.2021 19:52 2,1 C 0,0 C -2,2 C 66 % 1032,1 hPa 0,0 l/m 0 min 0 min 0 W/m 0,0 km/h (0 Bft) 91,67 %
05.03.2021 19:54 2,1 C 0,0 C -2,2 C 66 % 1032,1 hPa 0,0 l/m 0 min 0 min 0 W/m 0,0 km/h (0 Bft) 95,74 %
05.03.2021 19:56 2,0 C 0,0 C -2,2 C 66 % 1032,1 hPa 0,0 l/m 0 min 0 min 0 W/m 0,0 km/h (0 Bft) 94,44 %
05.03.2021 19:58 2,0 C 0,0 C -2,2 C 66 % 1032,2 hPa 0,0 l/m 0 min 0 min 0 W/m 0,0 km/h (0 Bft) 95,74 %
05.03.2021 20:00 1,9 C 0,0 C -2,7 C 66 % 1032,1 hPa 0,0 l/m 0 min 0 min 0 W/m 0,0 km/h (0 Bft) 95,74 %
05.03.2021 20:02 1,9 C 0,0 C -2,7 C 66 % 1032,2 hPa 0,0 l/m 0 min 0 min 0 W/m 0,0 km/h (0 Bft) 93,75 %
05.03.2021 20:04 1,8 C 0,0 C -2,7 C 66 % 1032,2 hPa 0,0 l/m 0 min 0 min 0 W/m 0,0 km/h (0 Bft) 93,62 %
05.03.2021 20:06 1,8 C 0,0 C -2,7 C 66 % 1032,3 hPa 0,0 l/m 0 min 0 min 0 W/m 0,0 km/h (0 Bft) 95,65 %
05.03.2021 20:08 1,7 C 0,0 C -2,7 C 66 % 1032,3 hPa 0,0 l/m 0 min 0 min 0 W/m 0,0 km/h (0 Bft) 95,74 %
05.03.2021 20:10 1,6 C 0,0 C -2,7 C 66 % 1032,3 hPa 0,0 l/m 0 min 0 min 0 W/m 0,0 km/h (0 Bft) 95,74 %
05.03.2021 20:12 1,6 C 0,0 C -2,7 C 66 % 1032,3 hPa 0,0 l/m 0 min 0 min 0 W/m 0,0 km/h (0 Bft) 97,87 %
05.03.2021 20:14 1,5 C 0,0 C -2,7 C 66 % 1032,4 hPa 0,0 l/m 0 min 0 min 0 W/m 0,0 km/h (0 Bft) 97,87 %
05.03.2021 20:16 1,5 C 0,0 C -2,7 C 67 % 1032,4 hPa 0,0 l/m 0 min 0 min 0 W/m 0,0 km/h (0 Bft) 100,00 %
05.03.2021 20:18 1,4 C 0,0 C -2,7 C 67 % 1032,4 hPa 0,0 l/m 0 min 0 min 0 W/m 0,0 km/h (0 Bft) 100,00 %
05.03.2021 20:20 1,4 C 0,0 C -2,7 C 67 % 1032,4 hPa 0,0 l/m 0 min 0 min 0 W/m 0,0 km/h (0 Bft) 100,00 %
05.03.2021 20:22 1,3 C 0,0 C -2,7 C 67 % 1032,3 hPa 0,0 l/m 0 min 0 min 0 W/m 0,0 km/h (0 Bft) 100,00 %
05.03.2021 20:24 1,3 C 0,0 C -2,7 C 67 % 1032,4 hPa 0,0 l/m 0 min 0 min 0 W/m 0,0 km/h (0 Bft) 100,00 %
05.03.2021 20:26 1,2 C 0,0 C -2,7 C 68 % 1032,4 hPa 0,0 l/m 0 min 0 min 0 W/m 0,0 km/h (0 Bft) 100,00 %
05.03.2021 20:28 1,1 C 0,0 C -2,7 C 68 % 1032,4 hPa 0,0 l/m 0 min 0 min 0 W/m 0,0 km/h (0 Bft) 100,00 %
05.03.2021 20:30 1,1 C 0,0 C -2,7 C 68 % 1032,4 hPa 0,0 l/m 0 min 0 min 0 W/m 0,0 km/h (0 Bft) 100,00 %
05.03.2021 20:32 1,0 C 0,0 C -2,7 C 67 % 1032,4 hPa 0,0 l/m 0 min 0 min 0 W/m 0,0 km/h (0 Bft) 97,87 %
05.03.2021 20:34 1,0 C -0,6 C -2,7 C 68 % 1032,5 hPa 0,0 l/m 0 min 0 min 0 W/m 0,0 km/h (0 Bft) 100,00 %
05.03.2021 20:36 1,0 C -0,6 C -2,7 C 68 % 1032,5 hPa 0,0 l/m 0 min 0 min 0 W/m 0,0 km/h (0 Bft) 100,00 %
05.03.2021 20:38 0,9 C -0,6 C -3,3 C 68 % 1032,5 hPa 0,0 l/m 0 min 0 min 0 W/m 0,0 km/h (0 Bft) 100,00 %
05.03.2021 20:40 0,9 C -0,6 C -3,3 C 68 % 1032,5 hPa 0,0 l/m 0 min 0 min 0 W/m 0,0 km/h (0 Bft) 100,00 %
05.03.2021 20:42 0,8 C -0,6 C -3,3 C 68 % 1032,5 hPa 0,0 l/m 0 min 0 min 0 W/m 0,0 km/h (0 Bft) 97,83 %
05.03.2021 20:44 0,8 C -0,6 C -3,3 C 69 % 1032,6 hPa 0,0 l/m 0 min 0 min 0 W/m 0,0 km/h (0 Bft) 100,00 %
05.03.2021 20:46 0,8 C -0,6 C -3,3 C 69 % 1032,6 hPa 0,0 l/m 0 min 0 min 0 W/m 0,0 km/h (0 Bft) 100,00 %
05.03.2021 20:48 0,7 C -0,6 C -3,3 C 69 % 1032,7 hPa 0,0 l/m 0 min 0 min 0 W/m 0,0 km/h (0 Bft) 95,74 %
05.03.2021 20:50 0,6 C -0,6 C -3,3 C 69 % 1032,6 hPa 0,0 l/m 0 min 0 min 0 W/m 0,0 km/h (0 Bft) 95,74 %
05.03.2021 20:52 0,5 C -0,6 C -3,3 C 69 % 1032,6 hPa 0,0 l/m 0 min 0 min 0 W/m 0,0 km/h (0 Bft) 97,87 %
05.03.2021 20:54 0,5 C -1,1 C -3,3 C 70 % 1032,7 hPa 0,0 l/m 0 min 0 min 0 W/m 0,0 km/h (0 Bft) 95,65 %
05.03.2021 20:56 0,5 C -1,1 C -3,3 C 70 % 1032,7 hPa 0,0 l/m 0 min 0 min 0 W/m 0,0 km/h (0 Bft) 95,74 %
05.03.2021 20:58 0,5 C -1,1 C -3,3 C 70 % 1032,7 hPa 0,0 l/m 0 min 0 min 0 W/m 0,0 km/h (0 Bft) 97,87 %
05.03.2021 21:00 0,5 C -1,1 C -3,3 C 70 % 1032,7 hPa 0,0 l/m 0 min 0 min 0 W/m 0,0 km/h (0 Bft) 97,87 %
05.03.2021 21:02 0,5 C -1,1 C -3,3 C 70 % 1032,8 hPa 0,0 l/m 0 min 0 min 0 W/m 0,0 km/h (0 Bft) 95,74 %
05.03.2021 21:04 0,4 C -1,1 C -3,3 C 71 % 1032,8 hPa 0,0 l/m 0 min 0 min 0 W/m 0,0 km/h (0 Bft) 97,83 %
05.03.2021 21:06 0,4 C -1,1 C -3,3 C 71 % 1032,8 hPa 0,0 l/m 0 min 0 min 0 W/m 0,0 km/h (0 Bft) 97,87 %
05.03.2021 21:08 0,3 C -1,1 C -3,3 C 71 % 1032,8 hPa 0,0 l/m 0 min 0 min 0 W/m 0,0 km/h (0 Bft) 97,87 %
05.03.2021 21:10 0,3 C -1,1 C -3,3 C 71 % 1032,9 hPa 0,0 l/m 0 min 0 min 0 W/m 0,0 km/h (0 Bft) 100,00 %
05.03.2021 21:12 0,2 C -1,1 C -3,3 C 71 % 1032,8 hPa 0,0 l/m 0 min 0 min 0 W/m 0,0 km/h (0 Bft) 100,00 %
05.03.2021 21:14 0,1 C -1,1 C -3,3 C 71 % 1032,9 hPa 0,0 l/m 0 min 0 min 0 W/m 0,0 km/h (0 Bft) 100,00 %
05.03.2021 21:16 0,1 C -1,1 C -3,3 C 72 % 1032,9 hPa 0,0 l/m 0 min 0 min 0 W/m 0,0 km/h (0 Bft) 100,00 %
05.03.2021 21:18 0,1 C -1,1 C -3,3 C 72 % 1032,9 hPa 0,0 l/m 0 min 0 min 0 W/m 0,0 km/h (0 Bft) 97,87 %
05.03.2021 21:20 0,0 C -1,1 C -3,3 C 72 % 1032,9 hPa 0,0 l/m 0 min 0 min 0 W/m 0,0 km/h (0 Bft) 100,00 %
05.03.2021 21:22 0,0 C -1,1 C -3,3 C 73 % 1032,9 hPa 0,0 l/m 0 min 0 min 0 W/m 0,0 km/h (0 Bft) 100,00 %
05.03.2021 21:24 0,0 C -1,1 C -3,9 C 73 % 1032,9 hPa 0,0 l/m 0 min 0 min 0 W/m 0,0 km/h (0 Bft) 100,00 %
05.03.2021 21:26 -0,1 C -1,1 C -3,9 C 73 % 1033,0 hPa 0,0 l/m 0 min 0 min 0 W/m 0,0 km/h (0 Bft) 100,00 %
05.03.2021 21:28 -0,1 C -1,1 C -3,9 C 73 % 1032,9 hPa 0,0 l/m 0 min 0 min 0 W/m 0,0 km/h (0 Bft) 97,83 %
05.03.2021 21:30 -0,1 C -1,1 C -3,9 C 73 % 1032,9 hPa 0,0 l/m 0 min 0 min 0 W/m 0,0 km/h (0 Bft) 100,00 %
05.03.2021 21:32 -0,2 C -1,1 C -3,9 C 74 % 1033,0 hPa 0,0 l/m 0 min 0 min 0 W/m 0,0 km/h (0 Bft) 100,00 %
05.03.2021 21:34 -0,2 C -1,1 C -3,9 C 74 % 1033,0 hPa 0,0 l/m 0 min 0 min 0 W/m 0,0 km/h (0 Bft) 100,00 %
05.03.2021 21:36 -0,2 C -1,7 C -3,9 C 74 % 1033,1 hPa 0,0 l/m 0 min 0 min 0 W/m 0,0 km/h (0 Bft) 100,00 %
05.03.2021 21:38 -0,3 C -1,7 C -3,9 C 74 % 1033,1 hPa 0,0 l/m 0 min 0 min 0 W/m 0,0 km/h (0 Bft) 100,00 %
05.03.2021 21:40 -0,4 C -1,7 C -3,9 C 74 % 1033,1 hPa 0,0 l/m 0 min 0 min 0 W/m 0,0 km/h (0 Bft) 100,00 %
05.03.2021 21:42 -0,4 C -1,7 C -3,9 C 75 % 1033,1 hPa 0,0 l/m 0 min 0 min 0 W/m 0,0 km/h (0 Bft) 100,00 %
05.03.2021 21:44 -0,4 C -1,7 C -3,9 C 75 % 1033,1 hPa 0,0 l/m 0 min 0 min 0 W/m 0,0 km/h (0 Bft) 100,00 %
05.03.2021 21:46 -0,5 C -1,7 C -3,9 C 75 % 1033,2 hPa 0,0 l/m 0 min 0 min 0 W/m 0,0 km/h (0 Bft) 100,00 %
05.03.2021 21:48 -0,5 C -1,7 C -3,9 C 75 % 1033,2 hPa 0,0 l/m 0 min 0 min 0 W/m 0,0 km/h (0 Bft) 56,52 %
05.03.2021 21:50 -0,5 C -1,7 C -3,9 C 75 % 1033,2 hPa 0,0 l/m 0 min 0 min 0 W/m 0,0 km/h (0 Bft) 100,00 %
05.03.2021 21:52 -0,6 C -1,7 C -3,9 C 75 % 1033,2 hPa 0,0 l/m 0 min 0 min 0 W/m 0,0 km/h (0 Bft) 100,00 %
05.03.2021 21:54 -0,6 C -1,7 C -3,9 C 75 % 1033,1 hPa 0,0 l/m 0 min 0 min 0 W/m 0,0 km/h (0 Bft) 97,87 %
05.03.2021 21:56 -0,7 C -1,7 C -3,9 C 76 % 1033,2 hPa 0,0 l/m 0 min 0 min 0 W/m 0,0 km/h (0 Bft) 100,00 %
05.03.2021 21:58 -0,7 C -1,7 C -3,9 C 76 % 1033,2 hPa 0,0 l/m 0 min 0 min 0 W/m 0,0 km/h (0 Bft) 100,00 %
05.03.2021 22:00 -0,8 C -1,7 C -3,9 C 76 % 1033,1 hPa 0,0 l/m 0 min 0 min 0 W/m 0,0 km/h (0 Bft) 97,87 %
05.03.2021 22:02 -0,9 C -1,7 C -3,9 C 76 % 1033,2 hPa 0,0 l/m 0 min 0 min 0 W/m 0,0 km/h (0 Bft) 95,74 %
05.03.2021 22:04 -0,9 C -1,7 C -3,9 C 76 % 1033,2 hPa 0,0 l/m 0 min 0 min 0 W/m 0,0 km/h (0 Bft) 97,87 %
05.03.2021 22:06 -0,9 C -1,7 C -3,9 C 76 % 1033,2 hPa 0,0 l/m 0 min 0 min 0 W/m 0,0 km/h (0 Bft) 97,87 %
05.03.2021 22:08 -1,0 C -1,7 C -3,9 C 76 % 1033,3 hPa 0,0 l/m 0 min 0 min 0 W/m 0,0 km/h (0 Bft) 95,74 %
05.03.2021 22:10 -1,0 C -1,7 C -4,4 C 77 % 1033,3 hPa 0,0 l/m 0 min 0 min 0 W/m 0,0 km/h (0 Bft) 97,83 %
05.03.2021 22:12 -1,1 C -1,7 C -4,4 C 77 % 1033,4 hPa 0,0 l/m 0 min 0 min 0 W/m 0,0 km/h (0 Bft) 95,74 %
05.03.2021 22:14 -1,1 C -1,7 C -4,4 C 77 % 1033,3 hPa 0,0 l/m 0 min 0 min 0 W/m 0,0 km/h (0 Bft) 97,87 %
05.03.2021 22:16 -1,1 C -1,7 C -4,4 C 77 % 1033,4 hPa 0,0 l/m 0 min 0 min 0 W/m 0,0 km/h (0 Bft) 97,87 %
05.03.2021 22:18 -1,1 C -1,7 C -4,4 C 77 % 1033,4 hPa 0,0 l/m 0 min 0 min 0 W/m 0,0 km/h (0 Bft) 100,00 %
05.03.2021 22:20 -1,2 C -1,7 C -4,4 C 78 % 1033,4 hPa 0,0 l/m 0 min 0 min 0 W/m 0,0 km/h (0 Bft) 100,00 %
05.03.2021 22:22 -1,2 C -1,7 C -4,4 C 78 % 1033,5 hPa 0,0 l/m 0 min 0 min 0 W/m 0,0 km/h (0 Bft) 100,00 %
05.03.2021 22:24 -1,2 C -1,7 C -4,4 C 78 % 1033,5 hPa 0,0 l/m 0 min 0 min 0 W/m 0,0 km/h (0 Bft) 100,00 %
05.03.2021 22:26 -1,3 C -1,7 C -4,4 C 78 % 1033,4 hPa 0,0 l/m 0 min 0 min 0 W/m 0,0 km/h (0 Bft) 100,00 %
05.03.2021 22:28 -1,3 C -2,2 C -4,4 C 78 % 1033,5 hPa 0,0 l/m 0 min 0 min 0 W/m 0,0 km/h (0 Bft) 100,00 %
05.03.2021 22:30 -1,4 C -2,2 C -4,4 C 78 % 1033,4 hPa 0,0 l/m 0 min 0 min 0 W/m 0,0 km/h (0 Bft) 100,00 %
05.03.2021 22:32 -1,4 C -2,2 C -4,4 C 79 % 1033,5 hPa 0,0 l/m 0 min 0 min 0 W/m 0,0 km/h (0 Bft) 97,87 %
05.03.2021 22:34 -1,4 C -2,2 C -4,4 C 79 % 1033,5 hPa 0,0 l/m 0 min 0 min 0 W/m 0,0 km/h (0 Bft) 100,00 %
05.03.2021 22:36 -1,4 C -2,2 C -4,4 C 79 % 1033,6 hPa 0,0 l/m 0 min 0 min 0 W/m 0,0 km/h (0 Bft) 97,87 %
05.03.2021 22:38 -1,4 C -2,2 C -4,4 C 79 % 1033,6 hPa 0,0 l/m 0 min 0 min 0 W/m 0,0 km/h (0 Bft) 100,00 %
05.03.2021 22:40 -1,5 C -2,2 C -4,4 C 79 % 1033,6 hPa 0,0 l/m 0 min 0 min 0 W/m 0,0 km/h (0 Bft) 100,00 %
05.03.2021 22:42 -1,5 C -2,2 C -4,4 C 79 % 1033,5 hPa 0,0 l/m 0 min 0 min 0 W/m 0,0 km/h (0 Bft) 100,00 %
05.03.2021 22:44 -1,5 C -2,2 C -4,4 C 79 % 1033,6 hPa 0,0 l/m 0 min 0 min 0 W/m 0,0 km/h (0 Bft) 97,87 %
05.03.2021 22:46 -1,5 C -2,2 C -4,4 C 79 % 1033,6 hPa 0,0 l/m 0 min 0 min 0 W/m 0,0 km/h (0 Bft) 100,00 %
05.03.2021 22:48 -1,5 C -2,2 C -4,4 C 79 % 1033,6 hPa 0,0 l/m 0 min 0 min 0 W/m 0,0 km/h (0 Bft) 100,00 %
05.03.2021 22:50 -1,5 C -2,2 C -4,4 C 79 % 1033,5 hPa 0,0 l/m 0 min 0 min 0 W/m 0,0 km/h (0 Bft) 100,00 %
05.03.2021 22:52 -1,6 C -2,2 C -4,4 C 79 % 1033,5 hPa 0,0 l/m 0 min 0 min 0 W/m 0,0 km/h (0 Bft) 100,00 %
05.03.2021 22:54 -1,6 C -2,2 C -4,4 C 79 % 1033,5 hPa 0,0 l/m 0 min 0 min 0 W/m 0,0 km/h (0 Bft) 95,74 %
05.03.2021 22:56 -1,6 C -2,2 C -4,4 C 80 % 1033,5 hPa 0,0 l/m 0 min 0 min 0 W/m 0,0 km/h (0 Bft) 85,11 %
05.03.2021 22:58 -1,7 C -2,2 C -4,4 C 80 % 1033,5 hPa 0,0 l/m 0 min 0 min 0 W/m 0,0 km/h (0 Bft) 65,85 %
05.03.2021 23:00 -1,7 C -2,2 C -4,4 C 80 % 1033,5 hPa 0,0 l/m 0 min 0 min 0 W/m 0,0 km/h (0 Bft) 100,00 %
05.03.2021 23:02 -1,7 C -2,2 C -4,4 C 80 % 1033,5 hPa 0,0 l/m 0 min 0 min 0 W/m 0,0 km/h (0 Bft) 100,00 %
05.03.2021 23:04 -1,7 C -2,8 C -4,4 C 80 % 1033,5 hPa 0,0 l/m 0 min 0 min 0 W/m 0,0 km/h (0 Bft) 97,87 %
05.03.2021 23:06 -1,8 C -2,8 C -4,4 C 81 % 1033,5 hPa 0,0 l/m 0 min 0 min 0 W/m 0,0 km/h (0 Bft) 97,87 %
05.03.2021 23:08 -1,8 C -2,8 C -4,4 C 81 % 1033,6 hPa 0,0 l/m 0 min 0 min 0 W/m 0,0 km/h (0 Bft) 100,00 %
05.03.2021 23:10 -1,9 C -2,8 C -4,4 C 81 % 1033,5 hPa 0,0 l/m 0 min 0 min 0 W/m 0,0 km/h (0 Bft) 97,87 %
05.03.2021 23:12 -1,9 C -2,8 C -5,0 C 81 % 1033,6 hPa 0,0 l/m 0 min 0 min 0 W/m 0,0 km/h (0 Bft) 97,83 %
05.03.2021 23:14 -1,9 C -2,8 C -5,0 C 81 % 1033,5 hPa 0,0 l/m 0 min 0 min 0 W/m 0,0 km/h (0 Bft) 95,74 %
05.03.2021 23:16 -1,9 C -2,8 C -5,0 C 81 % 1033,6 hPa 0,0 l/m 0 min 0 min 0 W/m 0,0 km/h (0 Bft) 95,74 %
05.03.2021 23:18 -1,9 C -2,8 C -5,0 C 81 % 1033,6 hPa 0,0 l/m 0 min 0 min 0 W/m 0,0 km/h (0 Bft) 97,87 %
05.03.2021 23:20 -2,0 C -2,8 C -5,0 C 82 % 1033,6 hPa 0,0 l/m 0 min 0 min 0 W/m 0,0 km/h (0 Bft) 95,74 %
05.03.2021 23:22 -2,0 C -2,8 C -5,0 C 82 % 1033,6 hPa 0,0 l/m 0 min 0 min 0 W/m 0,0 km/h (0 Bft) 97,87 %
05.03.2021 23:24 -2,0 C -2,8 C -5,0 C 82 % 1033,6 hPa 0,0 l/m 0 min 0 min 0 W/m 0,0 km/h (0 Bft) 95,65 %
05.03.2021 23:26 -2,0 C -2,8 C -5,0 C 82 % 1033,6 hPa 0,0 l/m 0 min 0 min 0 W/m 0,0 km/h (0 Bft) 97,87 %
05.03.2021 23:28 -2,0 C -2,8 C -5,0 C 82 % 1033,6 hPa 0,0 l/m 0 min 0 min 0 W/m 0,0 km/h (0 Bft) 100,00 %
05.03.2021 23:30 -2,0 C -2,8 C -5,0 C 82 % 1033,7 hPa 0,0 l/m 0 min 0 min 0 W/m 0,0 km/h (0 Bft) 100,00 %
05.03.2021 23:32 -2,0 C -2,8 C -5,0 C 82 % 1033,7 hPa 0,0 l/m 0 min 0 min 0 W/m 0,0 km/h (0 Bft) 97,92 %
05.03.2021 23:34 -2,1 C -2,8 C -5,0 C 82 % 1033,6 hPa 0,0 l/m 0 min 0 min 0 W/m 0,0 km/h (0 Bft) 100,00 %
05.03.2021 23:36 -2,1 C -2,8 C -5,0 C 82 % 1033,6 hPa 0,0 l/m 0 min 0 min 0 W/m 0,0 km/h (0 Bft) 100,00 %
05.03.2021 23:38 -2,1 C -2,8 C -5,0 C 83 % 1033,6 hPa 0,0 l/m 0 min 0 min 0 W/m 0,0 km/h (0 Bft) 100,00 %
05.03.2021 23:40 -2,1 C -2,8 C -5,0 C 83 % 1033,6 hPa 0,0 l/m 0 min 0 min 0 W/m 0,0 km/h (0 Bft) 100,00 %
05.03.2021 23:42 -2,1 C -2,8 C -5,0 C 83 % 1033,7 hPa 0,0 l/m 0 min 0 min 0 W/m 0,0 km/h (0 Bft) 97,96 %
05.03.2021 23:44 -2,2 C -2,8 C -5,0 C 83 % 1033,8 hPa 0,0 l/m 0 min 0 min 0 W/m 0,0 km/h (0 Bft) 100,00 %
05.03.2021 23:46 -2,2 C -2,8 C -5,0 C 83 % 1033,8 hPa 0,0 l/m 0 min 0 min 0 W/m 0,0 km/h (0 Bft) 100,00 %
05.03.2021 23:48 -2,2 C -2,8 C -5,0 C 83 % 1033,8 hPa 0,0 l/m 0 min 0 min 0 W/m 0,0 km/h (0 Bft) 100,00 %
05.03.2021 23:50 -2,2 C -2,8 C -5,0 C 83 % 1033,8 hPa 0,0 l/m 0 min 0 min 0 W/m 0,0 km/h (0 Bft) 100,00 %
05.03.2021 23:52 -2,2 C -2,8 C -4,4 C 83 % 1033,9 hPa 0,0 l/m 0 min 0 min 0 W/m 0,0 km/h (0 Bft) 97,87 %
05.03.2021 23:54 -2,2 C -2,8 C -4,4 C 83 % 1033,8 hPa 0,0 l/m 0 min 0 min 0 W/m 0,0 km/h (0 Bft) 100,00 %
05.03.2021 23:56 -2,2 C -2,8 C -4,4 C 83 % 1033,8 hPa 0,0 l/m 0 min 0 min 0 W/m 0,0 km/h (0 Bft) 100,00 %
05.03.2021 23:58 -2,3 C -2,8 C -4,4 C 83 % 1033,9 hPa 0,0 l/m 0 min 0 min 0 W/m 0,0 km/h (0 Bft) 100,00 %
06.03.2021 00:00 -2,3 C -2,8 C -5,0 C 83 % 1033,8 hPa 0,0 l/m 0 min 0 min 0 W/m 0,0 km/h (0 Bft) 100,00 %
06.03.2021 00:02 -2,3 C -2,8 C -5,0 C 84 % 1033,9 hPa 0,0 l/m 0 min 0 min 0 W/m 0,0 km/h (0 Bft) 100,00 %
06.03.2021 00:04 -2,3 C -2,8 C -5,0 C 84 % 1033,8 hPa 0,0 l/m 0 min 0 min 0 W/m 0,0 km/h (0 Bft) 97,87 %
06.03.2021 00:08 -2,4 C -2,8 C -5,0 C 84 % 1033,9 hPa 0,0 l/m 0 min 0 min 0 W/m 0,0 km/h (0 Bft) 98,82 %
06.03.2021 00:10 -2,4 C -2,8 C -5,0 C 84 % 1033,9 hPa 0,0 l/m 0 min 0 min 0 W/m 0,0 km/h (0 Bft) 100,00 %
06.03.2021 00:12 -2,4 C -2,8 C -5,0 C 84 % 1033,9 hPa 0,0 l/m 0 min 0 min 0 W/m 0,0 km/h (0 Bft) 100,00 %
06.03.2021 00:14 -2,4 C -2,8 C -5,0 C 84 % 1033,8 hPa 0,0 l/m 0 min 0 min 0 W/m 0,0 km/h (0 Bft) 100,00 %
06.03.2021 00:16 -2,4 C -2,8 C -5,0 C 84 % 1033,9 hPa 0,0 l/m 0 min 0 min 0 W/m 0,0 km/h (0 Bft) 100,00 %
06.03.2021 00:18 -2,4 C -2,8 C -5,0 C 85 % 1033,9 hPa 0,0 l/m 0 min 0 min 0 W/m 0,0 km/h (0 Bft) 97,87 %
06.03.2021 00:20 -2,4 C -2,8 C -5,0 C 85 % 1033,9 hPa 0,0 l/m 0 min 0 min 0 W/m 0,0 km/h (0 Bft) 100,00 %
06.03.2021 00:22 -2,5 C -2,8 C -5,0 C 85 % 1033,9 hPa 0,0 l/m 0 min 0 min 0 W/m 0,0 km/h (0 Bft) 95,74 %
06.03.2021 00:24 -2,4 C -2,8 C -5,0 C 85 % 1033,9 hPa 0,0 l/m 0 min 0 min 0 W/m 0,0 km/h (0 Bft) 97,87 %
06.03.2021 00:26 -2,5 C -2,8 C -5,0 C 85 % 1033,9 hPa 0,0 l/m 0 min 0 min 0 W/m 0,0 km/h (0 Bft) 97,83 %
06.03.2021 00:28 -2,5 C -2,8 C -5,0 C 85 % 1034,0 hPa 0,0 l/m 0 min 0 min 0 W/m 0,0 km/h (0 Bft) 95,74 %
06.03.2021 00:30 -2,5 C -2,8 C -5,0 C 85 % 1033,9 hPa 0,0 l/m 0 min 0 min 0 W/m 0,0 km/h (0 Bft) 97,87 %
06.03.2021 00:32 -2,5 C -3,3 C -5,0 C 85 % 1033,9 hPa 0,0 l/m 0 min 0 min 0 W/m 0,0 km/h (0 Bft) 95,74 %
06.03.2021 00:34 -2,5 C -3,3 C -5,0 C 85 % 1034,0 hPa 0,0 l/m 0 min 0 min 0 W/m 0,0 km/h (0 Bft) 97,87 %
06.03.2021 00:36 -2,5 C -3,3 C -5,0 C 85 % 1033,9 hPa 0,0 l/m 0 min 0 min 0 W/m 0,0 km/h (0 Bft) 95,74 %
06.03.2021 00:38 -2,5 C -3,3 C -5,0 C 85 % 1034,0 hPa 0,0 l/m 0 min 0 min 0 W/m 0,0 km/h (0 Bft) 97,83 %
06.03.2021 00:40 -2,6 C -3,3 C -5,0 C 86 % 1034,0 hPa 0,0 l/m 0 min 0 min 0 W/m 0,0 km/h (0 Bft) 95,74 %
06.03.2021 00:42 -2,6 C -3,3 C -5,0 C 86 % 1033,9 hPa 0,0 l/m 0 min 0 min 0 W/m 0,0 km/h (0 Bft) 93,62 %
06.03.2021 00:44 -2,6 C -3,3 C -5,0 C 86 % 1033,9 hPa 0,0 l/m 0 min 0 min 0 W/m 0,0 km/h (0 Bft) 95,74 %
06.03.2021 00:46 -2,6 C -3,3 C -5,0 C 86 % 1034,0 hPa 0,0 l/m 0 min 0 min 0 W/m 0,0 km/h (0 Bft) 97,87 %
06.03.2021 00:48 -2,6 C -3,3 C -5,0 C 86 % 1033,9 hPa 0,0 l/m 0 min 0 min 0 W/m 0,0 km/h (0 Bft) 97,87 %
06.03.2021 00:50 -2,6 C -3,3 C -5,0 C 86 % 1034,0 hPa 0,0 l/m 0 min 0 min 0 W/m 0,0 km/h (0 Bft) 97,83 %
06.03.2021 00:52 -2,6 C -3,3 C -5,0 C 86 % 1034,0 hPa 0,0 l/m 0 min 0 min 0 W/m 0,0 km/h (0 Bft) 97,87 %
06.03.2021 00:54 -2,6 C -3,3 C -5,0 C 86 % 1034,0 hPa 0,0 l/m 0 min 0 min 0 W/m 0,0 km/h (0 Bft) 97,87 %
06.03.2021 00:56 -2,6 C -3,3 C -5,0 C 86 % 1034,0 hPa 0,0 l/m 0 min 0 min 0 W/m 0,0 km/h (0 Bft) 93,62 %
06.03.2021 00:58 -2,6 C -3,3 C -5,0 C 86 % 1034,1 hPa 0,0 l/m 0 min 0 min 0 W/m 0,0 km/h (0 Bft) 97,87 %
06.03.2021 01:00 -2,6 C -3,3 C -5,0 C 86 % 1034,1 hPa 0,0 l/m 0 min 0 min 0 W/m 0,0 km/h (0 Bft) 97,87 %
06.03.2021 01:02 -2,6 C -3,3 C -5,0 C 86 % 1034,1 hPa 0,0 l/m 0 min 0 min 0 W/m 0,0 km/h (0 Bft) 93,48 %
06.03.2021 01:04 -2,6 C -3,3 C -5,0 C 87 % 1034,1 hPa 0,0 l/m 0 min 0 min 0 W/m 0,0 km/h (0 Bft) 97,87 %
06.03.2021 01:06 -2,7 C -3,3 C -5,5 C 87 % 1034,1 hPa 0,0 l/m 0 min 0 min 0 W/m 0,0 km/h (0 Bft) 97,87 %
06.03.2021 01:08 -2,7 C -3,3 C -5,5 C 87 % 1034,1 hPa 0,0 l/m 0 min 0 min 0 W/m 0,0 km/h (0 Bft) 97,87 %
06.03.2021 01:10 -2,7 C -3,3 C -5,5 C 87 % 1034,1 hPa 0,0 l/m 0 min 0 min 0 W/m 0,0 km/h (0 Bft) 52,27 %
06.03.2021 01:12 -2,7 C -3,3 C -5,5 C 87 % 1034,1 hPa 0,0 l/m 0 min 0 min 0 W/m 0,0 km/h (0 Bft) 97,87 %
06.03.2021 01:14 -2,7 C -3,3 C -5,5 C 87 % 1034,1 hPa 0,0 l/m 0 min 0 min 0 W/m 0,0 km/h (0 Bft) 97,83 %
06.03.2021 01:16 -2,7 C -3,3 C -5,5 C 87 % 1034,1 hPa 0,0 l/m 0 min 0 min 0 W/m 0,0 km/h (0 Bft) 97,87 %
06.03.2021 01:18 -2,8 C -3,3 C -5,5 C 87 % 1034,1 hPa 0,0 l/m 0 min 0 min 0 W/m 0,0 km/h (0 Bft) 97,87 %
06.03.2021 01:20 -2,8 C -3,3 C -5,5 C 87 % 1034,1 hPa 0,0 l/m 0 min 0 min 0 W/m 0,0 km/h (0 Bft) 95,74 %
06.03.2021 01:22 -2,8 C -3,3 C -5,5 C 87 % 1034,1 hPa 0,0 l/m 0 min 0 min 0 W/m 0,0 km/h (0 Bft) 97,87 %
06.03.2021 01:24 -2,9 C -3,3 C -5,5 C 88 % 1034,1 hPa 0,0 l/m 0 min 0 min 0 W/m 0,0 km/h (0 Bft) 97,83 %
06.03.2021 01:26 -2,9 C -3,3 C -5,5 C 88 % 1034,1 hPa 0,0 l/m 0 min 0 min 0 W/m 0,0 km/h (0 Bft) 97,87 %
06.03.2021 01:28 -2,9 C -3,3 C -5,5 C 88 % 1034,1 hPa 0,0 l/m 0 min 0 min 0 W/m 0,0 km/h (0 Bft) 97,87 %
06.03.2021 01:30 -2,9 C -3,3 C -5,5 C 88 % 1034,1 hPa 0,0 l/m 0 min 0 min 0 W/m 0,0 km/h (0 Bft) 97,87 %
06.03.2021 01:32 -2,9 C -3,3 C -5,5 C 88 % 1034,1 hPa 0,0 l/m 0 min 0 min 0 W/m 0,0 km/h (0 Bft) 95,74 %
06.03.2021 01:34 -2,9 C -3,3 C -5,5 C 88 % 1034,2 hPa 0,0 l/m 0 min 0 min 0 W/m 0,0 km/h (0 Bft) 97,87 %
06.03.2021 01:36 -2,9 C -3,3 C -5,5 C 88 % 1034,2 hPa 0,0 l/m 0 min 0 min 0 W/m 0,0 km/h (0 Bft) 95,65 %
06.03.2021 01:38 -3,0 C -3,3 C -5,5 C 88 % 1034,2 hPa 0,0 l/m 0 min 0 min 0 W/m 0,0 km/h (0 Bft) 97,87 %
06.03.2021 01:40 -3,0 C -3,3 C -5,5 C 88 % 1034,2 hPa 0,0 l/m 0 min 0 min 0 W/m 0,0 km/h (0 Bft) 93,62 %
06.03.2021 01:42 -3,0 C -3,3 C -5,5 C 88 % 1034,2 hPa 0,0 l/m 0 min 0 min 0 W/m 0,0 km/h (0 Bft) 95,74 %
06.03.2021 01:44 -3,0 C -3,3 C -5,5 C 88 % 1034,2 hPa 0,0 l/m 0 min 0 min 0 W/m 0,0 km/h (0 Bft) 95,74 %
06.03.2021 01:46 -3,0 C -3,3 C -5,5 C 88 % 1034,2 hPa 0,0 l/m 0 min 0 min 0 W/m 0,0 km/h (0 Bft) 95,74 %
06.03.2021 01:48 -3,0 C -3,3 C -5,5 C 88 % 1034,2 hPa 0,0 l/m 0 min 0 min 0 W/m 0,0 km/h (0 Bft) 95,65 %
06.03.2021 01:50 -3,0 C -3,3 C -5,5 C 88 % 1034,3 hPa 0,0 l/m 0 min 0 min 0 W/m 0,0 km/h (0 Bft) 91,49 %
06.03.2021 01:52 -3,0 C -3,3 C -5,5 C 88 % 1034,2 hPa 0,0 l/m 0 min 0 min 0 W/m 0,0 km/h (0 Bft) 95,74 %
06.03.2021 01:54 -3,1 C -3,9 C -5,5 C 88 % 1034,2 hPa 0,0 l/m 0 min 0 min 0 W/m 0,0 km/h (0 Bft) 93,62 %
06.03.2021 01:56 -3,1 C -3,9 C -5,5 C 88 % 1034,2 hPa 0,0 l/m 0 min 0 min 0 W/m 0,0 km/h (0 Bft) 95,74 %
06.03.2021 01:58 -3,1 C -3,9 C -5,5 C 89 % 1034,2 hPa 0,0 l/m 0 min 0 min 0 W/m 0,0 km/h (0 Bft) 95,74 %
06.03.2021 02:00 -3,1 C -3,9 C -5,5 C 89 % 1034,2 hPa 0,0 l/m 0 min 0 min 0 W/m 0,0 km/h (0 Bft) 97,83 %
06.03.2021 02:02 -3,1 C -3,9 C -5,5 C 89 % 1034,2 hPa 0,0 l/m 0 min 0 min 0 W/m 0,0 km/h (0 Bft) 93,62 %
06.03.2021 02:04 -3,1 C -3,9 C -5,5 C 89 % 1034,2 hPa 0,0 l/m 0 min 0 min 0 W/m 0,0 km/h (0 Bft) 97,87 %
06.03.2021 02:06 -3,1 C -3,9 C -5,5 C 89 % 1034,2 hPa 0,0 l/m 0 min 0 min 0 W/m 0,0 km/h (0 Bft) 97,87 %
06.03.2021 02:08 -3,1 C -3,9 C -5,5 C 89 % 1034,2 hPa 0,0 l/m 0 min 0 min 0 W/m 0,0 km/h (0 Bft) 100,00 %
06.03.2021 02:10 -3,2 C -3,9 C -5,5 C 89 % 1034,2 hPa 0,0 l/m 0 min 0 min 0 W/m 0,0 km/h (0 Bft) 100,00 %
06.03.2021 02:12 -3,2 C -3,9 C -5,5 C 89 % 1034,1 hPa 0,0 l/m 0 min 0 min 0 W/m 0,0 km/h (0 Bft) 93,62 %
06.03.2021 02:14 -3,2 C -3,9 C -5,5 C 89 % 1034,1 hPa 0,0 l/m 0 min 0 min 0 W/m 0,0 km/h (0 Bft) 100,00 %
06.03.2021 02:16 -3,2 C -3,9 C -5,5 C 89 % 1034,1 hPa 0,0 l/m 0 min 0 min 0 W/m 0,0 km/h (0 Bft) 100,00 %
06.03.2021 02:18 -3,2 C -3,9 C -5,5 C 89 % 1034,1 hPa 0,0 l/m 0 min 0 min 0 W/m 0,0 km/h (0 Bft) 100,00 %
06.03.2021 02:20 -3,2 C -3,9 C -5,5 C 89 % 1034,1 hPa 0,0 l/m 0 min 0 min 0 W/m 0,0 km/h (0 Bft) 100,00 %
06.03.2021 02:22 -3,3 C -3,9 C -5,5 C 89 % 1034,1 hPa 0,0 l/m 0 min 0 min 0 W/m 0,0 km/h (0 Bft) 100,00 %
06.03.2021 02:24 -3,3 C -3,9 C -5,5 C 89 % 1034,1 hPa 0,0 l/m 0 min 0 min 0 W/m 0,0 km/h (0 Bft) 100,00 %
06.03.2021 02:26 -3,3 C -3,9 C -5,5 C 89 % 1034,1 hPa 0,0 l/m 0 min 0 min 0 W/m 0,0 km/h (0 Bft) 100,00 %
06.03.2021 02:28 -3,4 C -3,9 C -5,5 C 89 % 1034,1 hPa 0,0 l/m 0 min 0 min 0 W/m 0,0 km/h (0 Bft) 100,00 %
06.03.2021 02:30 -3,4 C -3,9 C -5,5 C 89 % 1034,1 hPa 0,0 l/m 0 min 0 min 0 W/m 0,0 km/h (0 Bft) 100,00 %
06.03.2021 02:32 -3,4 C -3,9 C -5,5 C 89 % 1034,0 hPa 0,0 l/m 0 min 0 min 0 W/m 0,0 km/h (0 Bft) 100,00 %
06.03.2021 02:34 -3,4 C -3,9 C -5,5 C 90 % 1034,0 hPa 0,0 l/m 0 min 0 min 0 W/m 0,0 km/h (0 Bft) 100,00 %
06.03.2021 02:36 -3,4 C -3,9 C -5,5 C 90 % 1034,0 hPa 0,0 l/m 0 min 0 min 0 W/m 0,0 km/h (0 Bft) 100,00 %
06.03.2021 02:38 -3,4 C -3,9 C -5,5 C 90 % 1034,0 hPa 0,0 l/m 0 min 0 min 0 W/m 0,0 km/h (0 Bft) 100,00 %
06.03.2021 02:40 -3,4 C -3,9 C -5,5 C 90 % 1034,0 hPa 0,0 l/m 0 min 0 min 0 W/m 0,0 km/h (0 Bft) 100,00 %
06.03.2021 02:42 -3,3 C -3,9 C -5,5 C 90 % 1034,0 hPa 0,0 l/m 0 min 0 min 0 W/m 0,0 km/h (0 Bft) 100,00 %
06.03.2021 02:44 -3,2 C -3,9 C -5,5 C 90 % 1033,9 hPa 0,0 l/m 0 min 0 min 0 W/m 0,0 km/h (0 Bft) 100,00 %
06.03.2021 02:46 -3,2 C -3,9 C -5,5 C 90 % 1034,0 hPa 0,0 l/m 0 min 0 min 0 W/m 0,0 km/h (0 Bft) 100,00 %
06.03.2021 02:48 -3,2 C -3,9 C -5,5 C 90 % 1034,0 hPa 0,0 l/m 0 min 0 min 0 W/m 0,0 km/h (0 Bft) 97,87 %
06.03.2021 02:50 -3,2 C -3,9 C -5,5 C 90 % 1034,0 hPa 0,0 l/m 0 min 0 min 0 W/m 0,0 km/h (0 Bft) 100,00 %
06.03.2021 02:52 -3,2 C -3,9 C -5,5 C 90 % 1034,0 hPa 0,0 l/m 0 min 0 min 0 W/m 0,0 km/h (0 Bft) 100,00 %
06.03.2021 02:54 -3,2 C -3,9 C -5,5 C 90 % 1034,0 hPa 0,0 l/m 0 min 0 min 0 W/m 0,0 km/h (0 Bft) 97,87 %
06.03.2021 02:56 -3,2 C -3,9 C -5,5 C 90 % 1034,0 hPa 0,0 l/m 0 min 0 min 0 W/m 0,0 km/h (0 Bft) 97,87 %
06.03.2021 02:58 -3,2 C -3,9 C -5,5 C 90 % 1034,0 hPa 0,0 l/m 0 min 0 min 0 W/m 0,0 km/h (0 Bft) 100,00 %
06.03.2021 03:00 -3,2 C -3,9 C -5,5 C 90 % 1034,0 hPa 0,0 l/m 0 min 0 min 0 W/m 0,0 km/h (0 Bft) 100,00 %
06.03.2021 03:02 -3,2 C -3,9 C -5,5 C 90 % 1034,0 hPa 0,0 l/m 0 min 0 min 0 W/m 0,0 km/h (0 Bft) 96,30 %
06.03.2021 03:04 -3,3 C -3,9 C -5,5 C 90 % 1033,9 hPa 0,0 l/m 0 min 0 min 0 W/m 0,0 km/h (0 Bft) 95,74 %
06.03.2021 03:06 -3,3 C -3,9 C -5,5 C 91 % 1033,9 hPa 0,0 l/m 0 min 0 min 0 W/m 0,0 km/h (0 Bft) 97,83 %
06.03.2021 03:08 -3,3 C -3,9 C -5,5 C 91 % 1033,9 hPa 0,0 l/m 0 min 0 min 0 W/m 0,0 km/h (0 Bft) 97,87 %
06.03.2021 03:10 -3,3 C -3,9 C -5,5 C 91 % 1033,9 hPa 0,0 l/m 0 min 0 min 0 W/m 0,0 km/h (0 Bft) 97,87 %
06.03.2021 03:12 -3,4 C -3,9 C -5,5 C 91 % 1033,9 hPa 0,0 l/m 0 min 0 min 0 W/m 0,0 km/h (0 Bft) 97,87 %
06.03.2021 03:14 -3,4 C -3,9 C -5,5 C 91 % 1033,9 hPa 0,0 l/m 0 min 0 min 0 W/m 0,0 km/h (0 Bft) 97,87 %
06.03.2021 03:16 -3,4 C -3,9 C -5,5 C 91 % 1033,9 hPa 0,0 l/m 0 min 0 min 0 W/m 0,0 km/h (0 Bft) 97,83 %
06.03.2021 03:18 -3,4 C -3,9 C -5,5 C 91 % 1033,9 hPa 0,0 l/m 0 min 0 min 0 W/m 0,0 km/h (0 Bft) 54,35 %
06.03.2021 03:20 -3,4 C -3,9 C -5,5 C 91 % 1033,9 hPa 0,0 l/m 0 min 0 min 0 W/m 0,0 km/h (0 Bft) 97,73 %
06.03.2021 03:22 -3,4 C -3,9 C -5,5 C 91 % 1033,9 hPa 0,0 l/m 0 min 0 min 0 W/m 0,0 km/h (0 Bft) 97,87 %
06.03.2021 03:24 -3,5 C -3,9 C -5,5 C 91 % 1033,9 hPa 0,0 l/m 0 min 0 min 0 W/m